contact:dominique.lefevre@mio.osupytheas.fr, maurice.libes@osupytheas.fr, didier.mallarino@osupytheas.fr
Project:EMSO http://www.emso-fr.org/EMSO-France
Depth: 2436.0 m
Title:EMSO Ligure Ouest : Data MII capteur AQUADOPP
Date,Latitude,Longitude,X_East,Y_North,Z_Up,Amplitude_X,Amplitude_Y,Amplitude_Z,Batterie,SoundSpeed,Heading,Pitch,Roll,Pressure,TIS,Speed,Direction
, degrees North, degrees East, m.s-1, m.s-1,m.s-1, 1, 1, 1, Volt, m.s-1, degree, degree, degree, dbar, degree_C, m.s-1, degree
2020-08-31T00:04:03,42.805,6.029,-0.016,0.0,0.021,104.0,107.0,101.0,13.4,1505.3,325.8,-0.8,1.8,2470.363,13.31,0.016,270.0
2020-08-31T00:07:03,42.805,6.029,-0.049,0.023,0.014,103.0,108.0,102.0,13.3,1505.3,323.8,-0.7,1.9,2470.343,13.32,0.054,295.1
2020-08-31T00:10:03,42.805,6.029,-0.039,0.004,-0.002,103.0,107.0,103.0,13.3,1505.3,327.8,-0.7,1.8,2470.327,13.32,0.039,275.9
2020-08-31T00:13:03,42.805,6.029,-0.044,0.016,-0.038,104.0,107.0,101.0,13.3,1505.3,327.0,-0.7,1.9,2470.392,13.32,0.046,290.0
2020-08-31T00:16:03,42.805,6.029,-0.036,-0.001,0.001,103.0,107.0,102.0,13.4,1505.3,327.4,-0.7,1.9,2470.327,13.33,0.036,268.4
2020-08-31T00:19:03,42.805,6.029,-0.068,0.013,-0.034,103.0,107.0,102.0,13.4,1505.3,324.1,-0.7,1.8,2470.348,13.33,0.069,280.8
2020-08-31T00:22:03,42.805,6.029,-0.021,0.019,0.004,104.0,108.0,100.0,13.4,1505.3,326.0,-0.7,1.8,2470.348,13.33,0.028,312.1
2020-08-31T00:25:03,42.805,6.029,-0.037,-0.002,-0.015,103.0,106.0,102.0,13.3,1505.3,324.8,-0.7,1.9,2470.305,13.33,0.037,266.9
2020-08-31T00:28:03,42.805,6.029,-0.032,0.016,0.019,103.0,106.0,101.0,13.4,1505.3,326.4,-0.7,1.9,2470.35,13.33,0.035,296.6
2020-08-31T00:31:03,42.805,6.029,-0.024,0.014,0.02,103.0,106.0,101.0,13.4,1505.3,324.7,-0.7,1.8,2470.277,13.33,0.027,300.3
2020-08-31T00:34:03,42.805,6.029,-0.016,0.003,-0.029,104.0,105.0,101.0,13.4,1505.3,323.6,-0.7,1.8,2470.333,13.33,0.016,280.6
2020-08-31T00:37:03,42.805,6.029,-0.006,0.003,-0.006,104.0,107.0,101.0,13.3,1505.3,324.5,-0.7,1.8,2470.358,13.33,0.006,296.6
2020-08-31T00:40:03,42.805,6.029,-0.002,0.013,-0.002,104.0,106.0,101.0,13.4,1505.3,326.6,-0.6,1.9,2470.311,13.33,0.013,351.3
2020-08-31T00:43:03,42.805,6.029,-0.038,-0.002,-0.018,104.0,108.0,100.0,13.4,1505.3,324.6,-0.8,1.8,2470.297,13.33,0.038,267.0
2020-08-31T00:46:03,42.805,6.029,-0.034,0.0,-0.005,103.0,107.0,102.0,13.4,1505.3,324.5,-0.7,1.8,2470.322,13.33,0.034,270.0
2020-08-31T00:49:03,42.805,6.029,-0.059,0.014,0.015,102.0,107.0,100.0,13.3,1505.3,326.3,-0.7,1.8,2470.298,13.33,0.06,283.3
2020-08-31T00:52:03,42.805,6.029,-0.026,-0.004,-0.007,104.0,108.0,102.0,13.4,1505.3,322.5,-0.7,1.8,2470.301,13.33,0.026,261.3
2020-08-31T00:55:03,42.805,6.029,-0.027,0.038,-0.011,104.0,106.0,101.0,13.4,1505.3,325.6,-0.7,1.9,2470.281,13.33,0.046,324.6
2020-08-31T00:58:03,42.805,6.029,-0.032,0.03,0.006,104.0,108.0,103.0,13.4,1505.3,326.5,-0.7,1.8,2470.302,13.33,0.043,313.1
2020-08-31T01:04:03,42.805,6.029,-0.052,0.004,-0.035,106.0,108.0,102.0,13.4,1505.3,326.9,-0.7,1.8,2470.344,13.31,0.052,274.4
2020-08-31T01:07:03,42.805,6.029,-0.028,0.0,0.012,104.0,106.0,100.0,13.3,1505.3,327.2,-0.7,1.8,2470.331,13.32,0.028,270.0
2020-08-31T01:10:03,42.805,6.029,-0.046,0.004,-0.011,102.0,108.0,101.0,13.4,1505.3,326.6,-0.7,1.8,2470.351,13.32,0.046,275.0
2020-08-31T01:13:03,42.805,6.029,-0.027,0.006,0.002,104.0,107.0,102.0,13.4,1505.3,324.5,-0.7,1.8,2470.333,13.33,0.027,282.5
2020-08-31T01:16:03,42.805,6.029,-0.027,0.008,0.0,104.0,108.0,102.0,13.4,1505.3,325.9,-0.7,1.8,2470.37,13.33,0.028,286.5
2020-08-31T01:19:03,42.805,6.029,-0.044,0.018,0.023,102.0,108.0,101.0,13.3,1505.3,326.5,-0.7,1.8,2470.35,13.33,0.047,292.2
2020-08-31T01:22:03,42.805,6.029,-0.02,0.022,-0.003,104.0,107.0,100.0,13.3,1505.3,324.9,-0.7,1.8,2470.343,13.33,0.029,317.7
2020-08-31T01:25:03,42.805,6.029,0.0,0.029,0.001,104.0,106.0,100.0,13.3,1505.3,325.5,-0.7,1.8,2470.28,13.33,0.028,0.0
2020-08-31T01:28:03,42.805,6.029,-0.016,0.007,-0.014,103.0,105.0,101.0,13.4,1505.3,326.5,-0.7,1.8,2470.339,13.33,0.017,293.6
2020-08-31T01:31:03,42.805,6.029,-0.044,0.003,-0.039,102.0,108.0,102.0,13.4,1505.3,327.3,-0.7,1.8,2470.295,13.33,0.044,273.9
2020-08-31T01:34:03,42.805,6.029,-0.037,0.011,0.003,103.0,106.0,101.0,13.3,1505.3,325.5,-0.7,1.9,2470.292,13.33,0.038,286.6
2020-08-31T01:37:03,42.805,6.029,-0.024,0.006,-0.01,103.0,105.0,102.0,13.4,1505.3,326.2,-0.7,1.8,2470.297,13.33,0.024,284.0
2020-08-31T01:40:03,42.805,6.029,-0.024,0.003,0.0,103.0,108.0,102.0,13.3,1505.3,323.5,-0.7,1.8,2470.298,13.33,0.024,277.1
2020-08-31T01:43:03,42.805,6.029,-0.015,0.012,-0.011,103.0,108.0,101.0,13.4,1505.3,326.6,-0.7,1.8,2470.333,13.33,0.019,308.7
2020-08-31T01:46:03,42.805,6.029,-0.034,0.017,0.014,103.0,107.0,102.0,13.4,1505.3,326.0,-0.7,1.8,2470.315,13.33,0.038,296.6
2020-08-31T01:49:03,42.805,6.029,0.008,0.004,-0.007,102.0,107.0,101.0,13.4,1505.3,326.8,-0.7,1.9,2470.304,13.33,0.008,63.4
2020-08-31T01:55:03,42.805,6.029,-0.012,0.018,0.025,104.0,106.0,101.0,13.4,1505.3,326.7,-0.7,1.9,2470.38,13.31,0.021,326.3
2020-08-31T01:58:03,42.805,6.029,-0.017,0.0,-0.003,103.0,107.0,102.0,13.3,1505.3,325.6,-0.7,1.9,2470.331,13.32,0.017,270.0
2020-08-31T02:04:03,42.805,6.029,-0.057,0.016,-0.018,102.0,107.0,102.0,13.4,1505.2,327.5,-0.7,1.8,2470.375,13.3,0.059,285.7
2020-08-31T02:07:03,42.805,6.029,-0.036,0.005,-0.002,104.0,108.0,100.0,13.3,1505.3,326.7,-0.7,1.8,2470.39,13.31,0.036,277.9
2020-08-31T02:10:03,42.805,6.029,-0.032,0.016,-0.001,104.0,107.0,102.0,13.3,1505.3,322.7,-0.7,1.8,2470.358,13.32,0.035,296.6
2020-08-31T02:13:03,42.805,6.029,-0.046,-0.001,-0.033,102.0,107.0,102.0,13.3,1505.3,323.3,-0.7,1.8,2470.395,13.32,0.046,268.8
2020-08-31T02:16:03,42.805,6.029,-0.03,0.002,-0.001,104.0,107.0,101.0,13.4,1505.3,324.2,-0.7,1.8,2470.346,13.32,0.03,273.8
2020-08-31T02:19:03,42.805,6.029,-0.023,0.011,-0.007,105.0,106.0,100.0,13.4,1505.3,326.2,-0.7,1.8,2470.326,13.33,0.025,295.6
2020-08-31T02:22:03,42.805,6.029,-0.038,0.004,-0.01,105.0,107.0,102.0,13.3,1505.3,325.9,-0.7,1.8,2470.343,13.33,0.038,276.0
2020-08-31T02:25:03,42.805,6.029,-0.014,0.017,-0.005,103.0,106.0,100.0,13.4,1505.3,326.4,-0.7,1.8,2470.365,13.33,0.022,320.5
2020-08-31T02:28:03,42.805,6.029,-0.033,0.017,0.002,103.0,107.0,101.0,13.4,1505.3,326.5,-0.7,1.8,2470.345,13.33,0.037,297.3
2020-08-31T02:31:03,42.805,6.029,-0.049,0.014,-0.031,103.0,105.0,102.0,13.4,1505.3,326.5,-0.7,1.8,2470.335,13.33,0.05,285.9
2020-08-31T02:34:03,42.805,6.029,-0.042,0.018,-0.008,103.0,106.0,100.0,13.4,1505.3,326.5,-0.7,1.8,2470.327,13.33,0.045,293.2
2020-08-31T02:37:03,42.805,6.029,-0.047,0.006,-0.002,103.0,105.0,101.0,13.4,1505.3,326.8,-0.7,1.8,2470.326,13.33,0.047,277.3
2020-08-31T02:40:03,42.805,6.029,0.024,-0.005,0.015,102.0,107.0,102.0,13.4,1505.3,322.7,-0.7,1.8,2470.408,13.33,0.024,101.8
2020-08-31T02:43:03,42.805,6.029,-0.026,0.028,-0.006,104.0,105.0,101.0,13.4,1505.3,327.6,-0.7,1.8,2470.339,13.33,0.038,317.1
2020-08-31T02:46:03,42.805,6.029,-0.049,0.001,-0.014,102.0,106.0,101.0,13.4,1505.3,326.8,-0.7,1.8,2470.365,13.33,0.049,271.2
2020-08-31T02:49:03,42.805,6.029,-0.009,0.017,0.0,103.0,106.0,101.0,13.4,1505.3,325.3,-0.7,1.8,2470.35,13.33,0.019,332.1
2020-08-31T02:55:03,42.805,6.029,0.006,0.028,0.027,104.0,106.0,101.0,13.4,1505.3,326.3,-0.7,1.8,2470.395,13.31,0.028,12.1
2020-08-31T02:58:03,42.805,6.029,-0.046,0.016,-0.014,102.0,106.0,102.0,13.3,1505.3,327.8,-0.7,1.8,2470.383,13.32,0.048,289.2
2020-08-31T03:04:03,42.805,6.029,-0.033,0.01,-0.019,103.0,106.0,101.0,13.4,1505.3,326.7,-0.8,1.8,2470.459,13.31,0.034,286.9
2020-08-31T03:07:03,42.805,6.029,-0.03,0.027,0.004,105.0,108.0,101.0,13.3,1505.3,327.6,-0.7,1.8,2470.435,13.31,0.04,312.0
2020-08-31T03:10:03,42.805,6.029,-0.038,0.013,-0.036,103.0,107.0,102.0,13.3,1505.3,326.3,-0.7,1.8,2470.427,13.32,0.04,288.9
2020-08-31T03:13:03,42.805,6.029,-0.015,0.002,-0.005,106.0,108.0,101.0,13.4,1505.3,326.1,-0.7,1.8,2470.382,13.32,0.015,277.6
2020-08-31T03:16:03,42.805,6.029,-0.018,0.005,0.032,104.0,106.0,100.0,13.3,1505.3,323.6,-0.7,1.8,2470.392,13.33,0.018,285.5
2020-08-31T03:19:03,42.805,6.029,-0.027,0.014,-0.018,102.0,106.0,102.0,13.3,1505.3,325.8,-0.7,1.8,2470.377,13.33,0.03,297.4
2020-08-31T03:22:03,42.805,6.029,0.005,0.02,0.013,103.0,106.0,101.0,13.4,1505.3,326.7,-0.7,1.8,2470.401,13.33,0.02,14.0
2020-08-31T03:25:03,42.805,6.029,-0.023,0.0,0.001,104.0,108.0,100.0,13.4,1505.3,325.2,-0.7,1.8,2470.389,13.33,0.023,270.0
2020-08-31T03:28:03,42.805,6.029,-0.013,0.003,-0.002,104.0,106.0,100.0,13.4,1505.3,326.4,-0.7,1.8,2470.368,13.33,0.013,283.0
2020-08-31T03:31:03,42.805,6.029,-0.009,0.016,0.02,103.0,107.0,101.0,13.4,1505.3,325.9,-0.7,1.8,2470.405,13.33,0.018,330.6
2020-08-31T03:34:03,42.805,6.029,-0.018,0.01,0.004,103.0,106.0,101.0,13.4,1505.3,327.8,-0.7,1.8,2470.375,13.33,0.02,299.1
2020-08-31T03:37:03,42.805,6.029,-0.028,-0.003,-0.045,103.0,106.0,101.0,13.3,1505.3,325.0,-0.7,1.9,2470.409,13.33,0.028,263.9
2020-08-31T03:40:03,42.805,6.029,0.028,0.014,0.024,103.0,106.0,101.0,13.3,1505.3,324.6,-0.7,1.8,2470.386,13.33,0.031,63.4
2020-08-31T03:43:03,42.805,6.029,-0.038,-0.001,-0.023,104.0,106.0,101.0,13.4,1505.3,327.9,-0.7,1.8,2470.342,13.33,0.038,268.5
2020-08-31T03:46:03,42.805,6.029,-0.005,0.006,-0.014,104.0,107.0,101.0,13.4,1505.3,327.9,-0.7,1.8,2470.378,13.33,0.007,320.2
2020-08-31T03:49:03,42.805,6.029,-0.041,0.009,0.013,102.0,106.0,102.0,13.4,1505.3,324.6,-0.7,1.8,2470.401,13.33,0.041,282.4
2020-08-31T03:52:03,42.805,6.029,-0.017,0.004,0.021,103.0,105.0,102.0,13.4,1505.3,327.0,-0.7,1.8,2470.372,13.33,0.017,283.2
2020-08-31T03:55:03,42.805,6.029,-0.012,0.01,0.009,103.0,107.0,101.0,13.4,1505.3,327.7,-0.7,1.8,2470.432,13.33,0.015,309.8
2020-08-31T03:58:03,42.805,6.029,-0.035,0.021,-0.017,103.0,106.0,102.0,13.3,1505.3,327.2,-0.7,1.8,2470.369,13.33,0.04,301.0
2020-08-31T04:04:03,42.805,6.029,-0.001,0.005,-0.01,103.0,107.0,101.0,13.4,1505.3,325.0,-0.8,1.8,2470.436,13.31,0.005,348.7
2020-08-31T04:07:03,42.805,6.029,-0.02,0.0,0.02,103.0,106.0,103.0,13.4,1505.3,324.5,-0.7,1.8,2470.439,13.32,0.02,270.0
2020-08-31T04:10:03,42.805,6.029,0.002,0.014,0.007,103.0,105.0,101.0,13.4,1505.3,326.3,-0.7,1.8,2470.417,13.32,0.014,8.1
2020-08-31T04:13:03,42.805,6.029,-0.044,0.009,-0.018,105.0,106.0,101.0,13.4,1505.3,325.8,-0.7,1.8,2470.403,13.33,0.044,281.6
2020-08-31T04:16:03,42.805,6.029,-0.024,0.004,-0.015,104.0,107.0,101.0,13.3,1505.3,326.1,-0.7,1.9,2470.416,13.33,0.024,279.5
2020-08-31T04:19:03,42.805,6.029,-0.018,-0.007,-0.024,104.0,107.0,100.0,13.4,1505.3,325.3,-0.7,1.8,2470.404,13.33,0.019,248.8
2020-08-31T04:22:03,42.805,6.029,-0.033,0.013,0.008,104.0,105.0,101.0,13.4,1505.3,327.2,-0.7,1.8,2470.398,13.33,0.035,291.5
2020-08-31T04:28:03,42.805,6.029,-0.027,0.01,-0.029,102.0,107.0,102.0,13.4,1505.3,325.3,-0.7,1.8,2470.444,13.31,0.028,290.3
2020-08-31T04:31:03,42.805,6.029,-0.023,-0.01,-0.019,104.0,105.0,103.0,13.4,1505.3,327.9,-0.7,1.8,2470.43,13.32,0.025,246.5
2020-08-31T04:34:03,42.805,6.029,-0.001,-0.016,-0.016,103.0,106.0,101.0,13.4,1505.3,327.2,-0.7,1.8,2470.425,13.32,0.016,183.6
2020-08-31T04:37:03,42.805,6.029,0.01,0.013,0.033,103.0,107.0,103.0,13.3,1505.3,324.8,-0.7,1.9,2470.46,13.33,0.016,37.6
2020-08-31T04:40:03,42.805,6.029,-0.037,0.006,-0.014,105.0,107.0,100.0,13.3,1505.3,325.7,-0.7,1.8,2470.414,13.33,0.037,279.2
2020-08-31T04:43:03,42.805,6.029,-0.031,0.015,-0.005,103.0,106.0,102.0,13.4,1505.3,325.5,-0.7,1.9,2470.376,13.33,0.034,295.8
2020-08-31T04:46:03,42.805,6.029,-0.025,0.012,-0.031,104.0,105.0,101.0,13.4,1505.3,326.9,-0.7,1.8,2470.414,13.33,0.027,295.6
2020-08-31T04:49:03,42.805,6.029,-0.022,0.01,-0.039,103.0,105.0,101.0,13.4,1505.3,326.5,-0.7,1.8,2470.403,13.33,0.024,294.4
2020-08-31T04:52:03,42.805,6.029,-0.021,0.007,-0.022,103.0,106.0,102.0,13.4,1505.3,326.1,-0.7,1.8,2470.446,13.33,0.022,288.4
2020-08-31T04:55:03,42.805,6.029,-0.03,-0.001,-0.022,105.0,108.0,102.0,13.4,1505.3,323.2,-0.7,1.8,2470.431,13.33,0.03,268.1
2020-08-31T04:58:03,42.805,6.029,-0.024,0.011,0.001,104.0,107.0,101.0,13.3,1505.3,327.6,-0.7,1.8,2470.411,13.33,0.026,294.6
2020-08-31T05:04:03,42.805,6.029,-0.005,0.007,0.008,104.0,107.0,102.0,13.4,1505.3,325.6,-0.8,1.8,2470.485,13.31,0.008,324.5
2020-08-31T05:07:03,42.805,6.029,0.01,0.011,0.026,104.0,106.0,101.0,13.4,1505.3,326.3,-0.7,1.8,2470.468,13.32,0.014,42.3
2020-08-31T05:10:03,42.805,6.029,-0.013,0.02,0.005,103.0,106.0,102.0,13.4,1505.3,326.9,-0.7,1.9,2470.434,13.33,0.023,327.0
2020-08-31T05:13:03,42.805,6.029,-0.023,0.008,-0.02,103.0,106.0,101.0,13.4,1505.3,323.1,-0.7,1.8,2470.466,13.33,0.024,289.2
2020-08-31T05:16:03,42.805,6.029,-0.041,-0.019,-0.025,103.0,106.0,102.0,13.3,1505.3,323.2,-0.7,1.8,2470.428,13.33,0.045,245.1
2020-08-31T05:19:03,42.805,6.029,-0.039,-0.001,-0.02,103.0,105.0,101.0,13.4,1505.3,325.0,-0.7,1.8,2470.444,13.33,0.039,268.5
2020-08-31T05:22:03,42.805,6.029,-0.029,-0.014,-0.023,103.0,107.0,101.0,13.3,1505.3,325.6,-0.7,1.9,2470.43,13.33,0.032,244.2
2020-08-31T05:28:03,42.805,6.029,-0.006,0.003,0.026,103.0,107.0,101.0,13.4,1505.3,323.3,-0.7,1.8,2470.503,13.31,0.006,296.6
2020-08-31T05:31:03,42.805,6.029,-0.018,-0.001,0.008,105.0,106.0,101.0,13.4,1505.3,322.7,-0.7,1.9,2470.448,13.32,0.018,266.8
2020-08-31T05:34:03,42.805,6.029,-0.024,-0.003,-0.016,104.0,106.0,101.0,13.3,1505.3,327.0,-0.7,1.8,2470.461,13.32,0.024,262.9
2020-08-31T05:37:03,42.805,6.029,0.002,0.005,0.024,104.0,105.0,101.0,13.4,1505.3,327.8,-0.7,1.8,2470.479,13.33,0.005,21.8
2020-08-31T05:40:03,42.805,6.029,-0.028,-0.001,-0.009,103.0,106.0,101.0,13.4,1505.3,324.6,-0.7,1.8,2470.445,13.33,0.028,268.0
2020-08-31T05:43:03,42.805,6.029,-0.051,0.006,-0.044,104.0,106.0,102.0,13.4,1505.3,326.7,-0.7,1.8,2470.444,13.33,0.051,276.7
2020-08-31T05:46:03,42.805,6.029,-0.029,-0.003,0.013,102.0,106.0,102.0,13.3,1505.3,325.3,-0.7,1.8,2470.409,13.33,0.029,264.1
2020-08-31T05:49:03,42.805,6.029,-0.015,0.003,-0.018,104.0,105.0,101.0,13.4,1505.3,326.7,-0.7,1.8,2470.457,13.33,0.015,281.3
2020-08-31T05:52:03,42.805,6.029,-0.003,-0.012,0.013,102.0,106.0,101.0,13.4,1505.3,324.9,-0.7,1.9,2470.434,13.33,0.012,194.0
2020-08-31T05:55:03,42.805,6.029,-0.018,0.003,0.007,104.0,104.0,101.0,13.3,1505.3,325.1,-0.7,1.8,2470.475,13.33,0.018,279.5
2020-08-31T05:58:03,42.805,6.029,0.002,-0.005,-0.004,103.0,105.0,101.0,13.4,1505.3,323.6,-0.7,1.9,2470.447,13.33,0.005,158.2
2020-08-31T06:04:03,42.805,6.029,-0.019,0.008,-0.009,103.0,104.0,101.0,13.4,1505.3,324.5,-0.7,1.8,2470.462,13.31,0.02,292.8
2020-08-31T06:07:03,42.805,6.029,-0.025,-0.019,-0.027,103.0,106.0,101.0,13.3,1505.3,323.9,-0.7,1.8,2470.421,13.32,0.031,232.8
2020-08-31T06:10:03,42.805,6.029,-0.02,-0.006,-0.018,102.0,105.0,100.0,13.4,1505.3,326.6,-0.7,1.8,2470.467,13.32,0.02,253.3
2020-08-31T06:13:03,42.805,6.029,0.006,0.005,-0.01,104.0,105.0,100.0,13.4,1505.3,323.0,-0.7,1.8,2470.445,13.32,0.007,50.2
2020-08-31T06:16:03,42.805,6.029,-0.044,0.002,-0.03,104.0,105.0,101.0,13.4,1505.3,327.7,-0.7,1.8,2470.443,13.33,0.044,272.6
2020-08-31T06:19:03,42.805,6.029,0.0,-0.001,-0.006,103.0,105.0,101.0,13.4,1505.3,328.1,-0.7,1.9,2470.462,13.33,0.001,180.0
2020-08-31T06:22:03,42.805,6.029,-0.023,0.001,-0.026,102.0,105.0,102.0,13.4,1505.3,324.2,-0.7,1.8,2470.42,13.33,0.023,272.5
2020-08-31T06:25:03,42.805,6.029,-0.019,0.006,-0.019,103.0,104.0,100.0,13.3,1505.3,323.9,-0.7,1.8,2470.446,13.33,0.019,287.5
2020-08-31T06:28:03,42.805,6.029,-0.033,0.003,-0.017,102.0,106.0,101.0,13.4,1505.3,326.4,-0.7,1.8,2470.461,13.33,0.033,275.2
2020-08-31T06:31:03,42.805,6.029,-0.038,0.0,-0.03,103.0,105.0,100.0,13.3,1505.3,326.6,-0.7,1.8,2470.395,13.33,0.038,270.0
2020-08-31T06:34:03,42.805,6.029,-0.034,-0.021,-0.053,104.0,105.0,100.0,13.3,1505.3,325.6,-0.7,1.8,2470.423,13.33,0.039,238.3
2020-08-31T06:37:03,42.805,6.029,-0.034,-0.005,-0.04,103.0,105.0,102.0,13.4,1505.3,327.6,-0.7,1.8,2470.411,13.33,0.034,261.6
2020-08-31T06:40:03,42.805,6.029,0.0,-0.006,0.012,104.0,105.0,102.0,13.3,1505.3,328.5,-0.7,1.8,2470.409,13.33,0.006,180.0
2020-08-31T06:43:03,42.805,6.029,-0.019,-0.008,0.0,104.0,105.0,101.0,13.4,1505.3,326.8,-0.7,1.8,2470.434,13.33,0.02,247.2
2020-08-31T06:46:03,42.805,6.029,-0.005,-0.001,-0.007,103.0,105.0,101.0,13.3,1505.3,326.7,-0.7,1.8,2470.428,13.33,0.005,258.7
2020-08-31T06:49:03,42.805,6.029,0.001,-0.003,-0.003,103.0,105.0,101.0,13.4,1505.3,324.1,-0.7,1.8,2470.435,13.33,0.003,161.6
2020-08-31T06:52:03,42.805,6.029,-0.009,-0.007,-0.008,105.0,105.0,100.0,13.3,1505.3,325.9,-0.7,1.8,2470.393,13.33,0.011,232.1
2020-08-31T06:55:03,42.805,6.029,-0.032,0.003,-0.024,104.0,104.0,102.0,13.3,1505.3,325.6,-0.7,1.9,2470.443,13.33,0.032,275.4
2020-08-31T06:58:03,42.805,6.029,-0.023,-0.008,-0.025,104.0,104.0,101.0,13.4,1505.3,326.0,-0.7,1.8,2470.36,13.33,0.024,250.8
2020-08-31T07:04:03,42.805,6.029,-0.015,-0.026,-0.015,102.0,113.0,101.0,13.4,1505.3,322.8,-0.7,1.8,2470.485,13.31,0.03,210.0
2020-08-31T07:07:03,42.805,6.029,-0.043,0.0,-0.03,102.0,106.0,101.0,13.4,1505.3,323.7,-0.7,1.8,2470.475,13.32,0.043,270.0
2020-08-31T07:10:03,42.805,6.029,0.0,0.004,-0.006,104.0,104.0,100.0,13.4,1505.3,322.8,-0.7,1.8,2470.438,13.32,0.004,0.0
2020-08-31T07:13:03,42.805,6.029,-0.038,-0.022,-0.024,104.0,105.0,101.0,13.3,1505.3,323.1,-0.7,1.8,2470.425,13.32,0.043,239.9
2020-08-31T07:16:03,42.805,6.029,-0.007,-0.014,0.002,104.0,105.0,101.0,13.3,1505.3,322.9,-0.7,1.8,2470.43,13.32,0.015,206.6
2020-08-31T07:19:03,42.805,6.029,-0.011,-0.003,0.005,103.0,107.0,101.0,13.4,1505.3,325.6,-0.7,1.9,2470.445,13.33,0.011,254.7
2020-08-31T07:22:03,42.805,6.029,-0.023,0.005,0.0,103.0,104.0,101.0,13.4,1505.3,328.3,-0.7,1.8,2470.424,13.33,0.023,282.3
2020-08-31T07:25:03,42.805,6.029,-0.028,0.02,-0.035,102.0,105.0,102.0,13.4,1505.3,324.7,-0.7,1.8,2470.449,13.32,0.034,305.5
2020-08-31T07:28:03,42.805,6.029,-0.038,0.009,0.023,102.0,103.0,100.0,13.3,1505.3,323.8,-0.7,1.8,2470.412,13.33,0.039,283.3
2020-08-31T07:31:03,42.805,6.029,-0.038,-0.001,-0.022,103.0,103.0,100.0,13.3,1505.3,324.1,-0.7,1.8,2470.378,13.33,0.038,268.5
2020-08-31T07:34:03,42.805,6.029,-0.034,-0.005,-0.003,103.0,103.0,101.0,13.4,1505.3,326.9,-0.7,1.8,2470.381,13.33,0.034,261.6
2020-08-31T07:37:03,42.805,6.029,-0.021,-0.003,-0.002,103.0,104.0,100.0,13.3,1505.3,326.4,-0.7,1.8,2470.39,13.33,0.021,261.9
2020-08-31T07:40:03,42.805,6.029,-0.029,-0.01,0.005,102.0,106.0,101.0,13.4,1505.3,327.7,-0.7,1.8,2470.418,13.33,0.03,251.0
2020-08-31T07:43:03,42.805,6.029,-0.016,-0.011,-0.003,103.0,104.0,100.0,13.3,1505.3,325.9,-0.7,1.8,2470.402,13.33,0.019,235.5
2020-08-31T07:46:03,42.805,6.029,-0.028,-0.013,-0.041,101.0,104.0,99.0,13.4,1505.3,327.6,-0.7,1.8,2470.395,13.33,0.03,245.1
2020-08-31T07:49:03,42.805,6.029,-0.02,0.0,0.044,102.0,104.0,100.0,13.4,1505.3,325.6,-0.7,1.8,2470.396,13.33,0.02,270.0
2020-08-31T07:52:03,42.805,6.029,-0.025,0.0,0.003,102.0,105.0,100.0,13.3,1505.3,328.3,-0.6,1.8,2470.367,13.33,0.025,270.0
2020-08-31T07:55:03,42.805,6.029,-0.025,0.003,0.006,102.0,106.0,100.0,13.3,1505.3,324.5,-0.7,1.8,2470.384,13.33,0.025,276.8
2020-08-31T07:58:03,42.805,6.029,0.001,-0.016,-0.013,103.0,103.0,100.0,13.3,1505.3,325.5,-0.7,1.8,2470.413,13.33,0.016,176.4
2020-08-31T08:04:03,42.805,6.029,-0.002,0.001,-0.006,103.0,103.0,101.0,13.3,1505.3,326.1,-0.7,1.8,2470.399,13.31,0.002,296.6
2020-08-31T08:07:03,42.805,6.029,-0.046,-0.006,-0.042,103.0,105.0,100.0,13.4,1505.3,325.9,-0.7,1.8,2470.416,13.31,0.046,262.6
2020-08-31T08:10:03,42.805,6.029,-0.03,0.008,-0.007,103.0,106.0,99.0,13.4,1505.3,324.5,-0.7,1.9,2470.402,13.32,0.031,284.9
2020-08-31T08:16:03,42.805,6.029,-0.016,-0.011,-0.02,102.0,103.0,100.0,13.4,1505.2,326.6,-0.7,1.8,2470.447,13.3,0.019,235.5
2020-08-31T08:19:03,42.805,6.029,-0.036,-0.023,-0.047,102.0,103.0,101.0,13.4,1505.3,327.0,-0.7,1.8,2470.404,13.31,0.042,237.4
2020-08-31T08:22:03,42.805,6.029,-0.033,-0.022,-0.034,103.0,104.0,100.0,13.4,1505.3,326.4,-0.7,1.9,2470.443,13.32,0.039,236.3
2020-08-31T08:25:03,42.805,6.029,-0.006,0.0,0.015,103.0,102.0,101.0,13.4,1505.3,327.9,-0.7,1.8,2470.416,13.32,0.006,270.0
2020-08-31T08:28:03,42.805,6.029,-0.057,0.0,-0.038,102.0,105.0,99.0,13.4,1505.3,323.2,-0.7,1.8,2470.436,13.32,0.057,270.0
2020-08-31T08:31:03,42.805,6.029,-0.043,0.003,-0.028,101.0,104.0,98.0,13.3,1505.3,324.6,-0.7,1.8,2470.44,13.32,0.043,274.0
2020-08-31T08:34:03,42.805,6.029,-0.033,-0.025,-0.031,101.0,104.0,99.0,13.3,1505.3,325.8,-0.7,1.8,2470.393,13.32,0.041,232.9
2020-08-31T08:37:03,42.805,6.029,-0.072,-0.02,-0.089,102.0,103.0,98.0,13.3,1505.3,325.3,-0.7,1.8,2470.396,13.32,0.074,254.5
2020-08-31T08:40:03,42.805,6.029,-0.019,-0.023,-0.007,101.0,104.0,100.0,13.4,1505.3,324.7,-0.7,1.8,2470.46,13.32,0.029,219.6
2020-08-31T08:43:03,42.805,6.029,-0.014,-0.029,-0.034,102.0,105.0,101.0,13.4,1505.3,324.5,-0.7,1.8,2470.39,13.33,0.032,205.8
2020-08-31T08:46:03,42.805,6.029,-0.038,0.0,-0.032,102.0,103.0,101.0,13.4,1505.3,327.9,-0.7,1.8,2470.369,13.32,0.038,270.0
2020-08-31T08:49:03,42.805,6.029,-0.035,0.0,-0.035,102.0,105.0,100.0,13.3,1505.3,327.9,-0.7,1.8,2470.381,13.32,0.035,270.0
2020-08-31T08:52:03,42.805,6.029,-0.036,-0.011,-0.016,102.0,103.0,101.0,13.4,1505.3,328.3,-0.7,1.8,2470.381,13.32,0.037,253.0
2020-08-31T08:55:03,42.805,6.029,-0.036,0.007,0.0,102.0,106.0,101.0,13.4,1505.3,327.5,-0.7,1.8,2470.399,13.32,0.036,281.0
2020-08-31T08:58:03,42.805,6.029,-0.045,-0.002,-0.02,102.0,104.0,101.0,13.4,1505.3,324.7,-0.7,1.8,2470.431,13.33,0.045,267.5
2020-08-31T09:04:03,42.805,6.029,-0.048,-0.012,-0.005,102.0,105.0,100.0,13.4,1505.3,324.5,-0.7,1.8,2470.399,13.31,0.049,256.0
2020-08-31T09:07:03,42.805,6.029,-0.053,-0.008,-0.008,102.0,106.0,100.0,13.4,1505.3,324.1,-0.7,1.8,2470.379,13.31,0.053,261.4
2020-08-31T09:10:03,42.805,6.029,-0.049,-0.024,-0.024,101.0,105.0,101.0,13.3,1505.3,324.5,-0.7,1.8,2470.451,13.32,0.054,243.9
2020-08-31T09:13:03,42.805,6.029,-0.044,-0.017,-0.021,102.0,105.0,100.0,13.4,1505.3,326.3,-0.7,1.8,2470.392,13.32,0.047,248.9
2020-08-31T09:16:03,42.805,6.029,-0.046,0.001,0.0,103.0,102.0,101.0,13.4,1505.3,324.4,-0.7,1.8,2470.38,13.32,0.046,271.2
2020-08-31T09:19:03,42.805,6.029,-0.023,-0.005,0.002,103.0,106.0,100.0,13.3,1505.3,326.5,-0.7,1.9,2470.363,13.32,0.023,257.7
2020-08-31T09:22:03,42.805,6.029,-0.048,-0.003,-0.042,103.0,104.0,101.0,13.4,1505.3,325.4,-0.7,1.8,2470.387,13.32,0.048,266.4
2020-08-31T09:25:03,42.805,6.029,-0.051,-0.007,-0.004,102.0,104.0,100.0,13.4,1505.3,324.6,-0.7,1.8,2470.39,13.32,0.051,262.2
2020-08-31T09:28:03,42.805,6.029,-0.042,-0.004,-0.023,101.0,105.0,101.0,13.4,1505.3,325.4,-0.7,1.8,2470.386,13.32,0.042,264.6
2020-08-31T09:31:03,42.805,6.029,-0.012,-0.02,-0.009,103.0,104.0,100.0,13.4,1505.3,322.8,-0.7,1.8,2470.385,13.32,0.023,211.0
2020-08-31T09:34:03,42.805,6.029,-0.039,-0.032,-0.018,102.0,105.0,101.0,13.4,1505.3,324.0,-0.7,1.8,2470.396,13.32,0.05,230.6
2020-08-31T09:37:03,42.805,6.029,-0.021,0.0,-0.026,102.0,104.0,100.0,13.4,1505.3,323.6,-0.7,1.8,2470.38,13.32,0.021,270.0
2020-08-31T09:43:03,42.805,6.029,-0.06,-0.013,-0.043,103.0,104.0,101.0,13.4,1505.2,325.2,-0.7,1.8,2470.371,13.3,0.061,257.8
2020-08-31T09:46:03,42.805,6.029,-0.057,-0.007,0.005,103.0,103.0,101.0,13.4,1505.3,325.0,-0.7,1.8,2470.361,13.31,0.057,263.0
2020-08-31T09:49:03,42.805,6.029,-0.05,-0.007,0.005,103.0,105.0,101.0,13.4,1505.3,326.1,-0.7,1.8,2470.396,13.32,0.05,262.0
2020-08-31T09:52:03,42.805,6.029,-0.031,-0.022,0.009,104.0,104.0,101.0,13.4,1505.3,323.2,-0.7,1.8,2470.403,13.32,0.038,234.6
2020-08-31T09:55:03,42.805,6.029,-0.049,-0.002,-0.022,102.0,104.0,101.0,13.4,1505.3,324.7,-0.7,1.8,2470.377,13.32,0.049,267.7
2020-08-31T09:58:03,42.805,6.029,-0.041,0.007,0.008,103.0,105.0,100.0,13.3,1505.3,324.4,-0.7,1.8,2470.359,13.32,0.041,279.7
2020-08-31T10:04:03,42.805,6.029,-0.027,-0.022,-0.025,102.0,106.0,102.0,13.4,1505.2,323.3,-0.7,1.8,2470.401,13.3,0.034,230.8
2020-08-31T10:07:03,42.805,6.029,-0.024,-0.013,-0.008,104.0,104.0,100.0,13.3,1505.3,323.6,-0.7,1.8,2470.375,13.31,0.027,241.6
2020-08-31T10:10:03,42.805,6.029,-0.042,0.006,-0.01,103.0,104.0,102.0,13.4,1505.3,326.3,-0.7,1.8,2470.409,13.32,0.042,278.1
2020-08-31T10:13:03,42.805,6.029,-0.046,-0.007,-0.033,102.0,105.0,100.0,13.4,1505.3,327.6,-0.7,1.8,2470.401,13.32,0.046,261.3
2020-08-31T10:16:03,42.805,6.029,-0.019,0.007,-0.004,103.0,104.0,102.0,13.3,1505.3,326.8,-0.7,1.9,2470.385,13.32,0.02,290.2